Location: Dresden
(51.0500°N, 13.7500°E)
Time: 00:25:48
(UTC+00:00)

ISS - Pass Details

Date: 27 March 2019
Orbit: 408 x 410 km, 51.6° (Epoch: 21 April)

Event Time Altitude Azimuth Distance (km) Brightness Sun altitude
Rises 20:45:30 0° 281° (W) 2,338 0.8 -28.0°
Reaches altitude 10° 20:47:35 10° 281° (W) 1,476 -0.4 -28.2°
Enters shadow 20:48:02 13° 281° (W) 1,291 -0.7 -28.3°
